This is the latest recevied weather packets stored in our database for station/object 5B4ALR-13. If no packets are shown the sender has not sent any weather packets the latest 10 day(s).
| Time | Temp. | Humidity | Pressure | Rain* | Wind** | Luminosity | Snow |
|---|---|---|---|---|---|---|---|
| 1778224269 | 27.22° C | 30% | 1019.1 hPa | 0 mm | - | - | - |
| 1778223669 | 27.22° C | 29% | 1019 hPa | 0 mm | - | - | - |
| 1778223069 | 27.78° C | 28% | 1019.1 hPa | 0 mm | - | - | - |
| 1778222469 | 28.33° C | 27% | 1019.1 hPa | 0 mm | - | - | - |
| 1778221869 | 28.33° C | 27% | 1019.2 hPa | 0 mm | - | - | - |
| 1778221269 | 27.78° C | 27% | 1019.2 hPa | 0 mm | - | - | - |
| 1778220669 | 27.78° C | 28% | 1019.2 hPa | 0 mm | - | - | - |
| 1778220069 | 27.78° C | 29% | 1019.3 hPa | 0 mm | - | - | - |
| 1778219469 | 27.22° C | 30% | 1019.2 hPa | 0 mm | - | - | - |
| 1778218869 | 26.67° C | 32% | 1019.2 hPa | 0 mm | - | - | - |
| 1778218269 | 26.67° C | 32% | 1019 hPa | 0 mm | - | - | - |
| 1778217669 | 26.11° C | 33% | 1019.1 hPa | 0 mm | - | - | - |
| 1778217069 | 25.56° C | 33% | 1019 hPa | 0 mm | - | - | - |
| 1778216469 | 26.11° C | 33% | 1019 hPa | 0 mm | - | - | - |
| 1778215869 | 26.11° C | 35% | 1019 hPa | 0 mm | - | - | - |
| 1778215269 | 25° C | 35% | 1019.1 hPa | 0 mm | - | - | - |
| 1778214669 | 24.44° C | 37% | 1019.1 hPa | 0 mm | - | - | - |
| 1778214069 | 23.33° C | 39% | 1019.1 hPa | 0 mm | - | - | - |
| 1778213469 | 22.78° C | 40% | 1019 hPa | 0 mm | - | - | - |
| 1778212869 | 22.22° C | 41% | 1018.9 hPa | 0 mm | - | - | - |
| 1778212269 | 21.67° C | 42% | 1018.7 hPa | 0 mm | - | - | - |
| 1778211669 | 20.56° C | 44% | 1018.7 hPa | 0 mm | - | - | - |
| 1778211069 | 18.89° C | 46% | 1018.5 hPa | 0 mm | - | - | - |
| 1778210469 | 18.33° C | 46% | 1018.4 hPa | 0 mm | - | - | - |
| 1778209869 | 17.78° C | 46% | 1018.3 hPa | 0 mm | - | - | - |
* Rain latest hour (hover to see other rain measurements)
** Current wind speed in m/s (hover to see current wind gust speed)